Theta_e
307 308 311 311 311 312 312 313 325 325 322 323 323 322 323 324 324 326 327 326 326 326 329 330 328 328 328 328 327 326 328 327 328 327 330 335 336 338 338 341 343 344 344 353
307 307 309 310 311 312 311 315 323 325 323 323 322 323 323 324 324 325 326 326 325 325 326 328 331 331 330 330 326 326 325 328 326 325 326 335 335 334 332 332 335 346 344 349
307 307 308 310 311 311 312 318 325 325 324 324 324 324 324 325 326 325 326 324 324 326 328 327 330 331 330 329 326 326 327 324 323 325 326 328 329 332 331 330 331 348 345 347
308 308 309 310 311 312 314 321 326 321 327 326 324 324 324 325 325 327 325 325 324 326 327 329 329 331 330 329 327 328 324 323 326 325 326 326 326 326 329 332 333 340 344 346
308 307 309 310 310 313 319 320 319 318 320 320 321 323 326 326 325 325 326 325 324 325 325 326 328 327 327 332 329 329 325 326 328 327 327 327 327 326 326 331 335 340 344 346
308 307 310 309 310 311 318 317 315 317 320 319 319 320 323 324 325 326 325 325 326 327 325 324 324 325 326 325 328 327 326 325 326 326 327 326 326 328 327 326 327 342 344 342
309 308 309 307 308 309 312 316 316 316 319 320 321 321 322 322 323 324 323 324 324 322 322 323 324 326 326 327 326 327 327 327 327 327 328 328 326 326 327 327 327 327 342 341
309 308 308 306 307 309 313 316 316 316 319 319 320 321 321 320 321 322 322 323 322 321 321 322 326 326 328 329 328 328 326 328 330 329 329 327 329 328 328 328 327 327 338 340
308 308 308 306 306 308 313 316 315 316 317 319 318 319 320 320 319 320 321 321 322 321 320 322 326 328 329 331 330 327 325 324 328 329 336 335 330 330 332 331 331 344 342 338
307 308 307 306 304 308 312 315 315 315 316 318 318 318 318 318 320 320 320 319 322 320 320 321 321 321 324 326 329 330 327 328 328 329 330 331 332 333 332 335 344 345 345 339
307 307 307 307 304 307 311 315 314 314 314 315 317 317 316 316 318 319 318 320 320 320 321 321 321 322 321 322 323 326 331 330 328 329 333 331 331 332 336 342 342 340 342 345
306 306 307 306 305 305 308 314 313 313 313 314 315 315 316 316 315 315 316 317 319 320 320 320 322 324 322 322 323 323 325 325 330 327 328 331 329 331 343 341 338 337 339 341
306 306 307 306 304 304 306 309 311 311 314 314 315 316 316 315 315 314 314 315 316 315 316 318 321 326 324 324 323 325 324 327 328 330 329 332 338 338 342 339 337 336 336 337
306 307 307 306 303 305 306 310 311 311 313 314 316 315 315 315 314 314 314 314 314 315 315 317 318 321 322 322 321 322 324 325 326 330 326 331 336 335 336 336 334 333 332 331
306 306 307 306 304 306 307 309 310 311 311 312 313 315 315 314 315 314 314 314 314 314 315 317 317 318 318 318 318 319 321 322 322 324 322 323 325 325 331 331 330 330 330 329
306 306 308 304 305 308 310 313 311 311 311 312 313 313 314 314 314 313 313 314 315 315 316 316 316 315 316 318 318 319 318 319 320 321 320 320 321 321 323 330 330 329 328 327
307 308 306 305 304 306 309 311 311 311 309 312 312 314 314 312 311 312 312 314 315 315 316 316 316 315 316 317 318 318 318 317 318 318 319 319 320 320 320 320 321 324 330 327
306 307 307 305 305 305 308 309 309 308 309 311 313 312 314 314 314 315 315 314 314 314 315 315 316 316 317 317 317 317 317 318 318 318 318 318 319 319 319 319 320 320 320 323
307 305 305 307 307 310 311 310 308 308 311 311 311 313 317 314 315 315 315 314 315 315 316 315 316 316 318 319 318 317 317 317 318 319 321 321 321 321 321 321 321 321 320 320
306 307 309 309 310 309 309 310 311 309 308 309 309 311 314 314 315 314 314 312 314 316 316 315 316 316 315 316 316 317 318 317 318 320 321 321 321 322 322 323 323 323 323 322
309 310 310 309 308 310 310 310 310 309 309 309 309 311 313 314 315 315 312 315 315 316 316 317 318 319 319 318 316 315 316 318 320 320 320 319 321 322 322 322 322 322 322 323
307 307 309 310 310 311 312 314 313 312 314 312 312 314 313 311 311 312 313 314 315 316 316 318 318 320 320 324 321 321 318 316 318 319 321 322 322 322 322 321 321 322 322 321
308 309 310 309 310 309 313 314 315 316 315 316 315 315 313 311 310 311 312 314 315 315 318 319 320 321 321 321 321 322 323 322 320 322 323 323 323 323 322 322 321 321 322 322
308 310 306 311 312 312 312 314 316 315 314 314 315 315 315 313 311 312 313 314 315 319 320 321 321 320 320 318 317 318 319 319 321 321 320 321 321 321 321 321 321 321 321 322
309 310 311 313 313 313 314 314 315 313 313 313 314 316 316 315 315 312 313 315 317 317 319 322 319 318 318 317 317 318 318 318 318 319 320 320 321 320 320 321 321 321 322 322
307 310 312 312 312 312 312 312 312 311 311 311 313 315 317 318 316 315 316 317 318 319 320 318 317 317 317 317 317 317 317 318 318 319 318 319 319 319 320 321 321 321 321 321
307 309 310 309 309 309 309 309 309 309 310 313 313 314 315 317 319 319 318 318 319 317 316 316 317 316 316 317 317 318 319 319 319 319 319 319 320 320 320 321 321 322 322 323
Wind_Speed
17 17 19 23 26 20 12 3 3 17 17 8 7 8 6 10 24 33 2 5 8 10 14 7 15 19 13 28 21 15 15 8 10 14 13 14 8 9 7 5 6 2 3 5
17 17 17 18 22 24 23 10 8 13 17 4 8 10 17 22 20 20 5 6 7 10 11 8 8 5 19 18 16 17 10 11 9 11 8 6 7 12 8 6 3 6 6 6
17 17 15 15 16 18 19 6 3 11 17 17 12 11 12 14 28 17 7 8 13 11 8 8 8 13 7 7 6 6 7 3 8 9 9 4 5 7 10 8 2 4 3 4
18 17 14 14 13 13 13 3 3 9 2 2 9 12 13 17 16 10 10 3 9 9 7 9 9 11 2 5 4 2 3 3 4 7 7 9 11 10 10 9 8 7 9 9
19 18 15 14 13 9 4 7 7 13 17 15 11 11 5 11 15 10 5 7 11 8 6 7 7 11 7 4 1 1 3 2 2 6 9 12 15 12 11 6 7 9 14 4
18 18 15 13 12 9 3 11 17 7 11 8 8 8 9 10 11 12 13 16 5 6 10 16 21 21 19 12 6 7 3 4 3 5 7 10 11 7 7 9 7 16 8 7
17 17 14 11 10 9 9 11 13 6 6 8 9 17 23 6 7 8 14 18 6 11 16 18 18 19 19 13 11 3 6 4 3 4 3 8 7 10 11 9 9 5 20 19
15 17 14 10 8 5 3 8 11 6 6 14 13 15 14 16 16 8 13 13 7 13 12 6 6 3 4 5 10 7 3 2 2 5 5 8 7 11 13 7 10 9 21 20
12 16 13 9 7 4 1 10 7 6 7 1 19 12 16 5 7 8 15 17 12 6 3 2 3 3 3 4 3 5 6 5 4 4 1 5 8 11 14 9 2 19 15 21
13 13 14 10 7 4 1 8 10 6 9 4 13 8 7 9 10 5 8 17 7 10 2 2 3 5 6 4 4 7 4 4 4 4 4 5 7 9 11 7 2 18 21 20
13 11 13 11 7 4 2 4 10 8 6 16 10 9 10 14 12 4 16 10 9 4 1 3 3 4 5 5 6 6 5 5 4 3 3 7 13 9 4 5 22 24 22 27
13 10 12 11 6 3 2 2 7 9 6 13 14 11 10 10 8 9 9 9 14 11 4 6 4 4 4 4 7 6 6 5 5 8 6 8 29 3 14 21 25 21 21 24
10 9 11 10 6 3 4 4 9 13 8 16 11 4 7 5 2 5 4 7 10 11 13 6 2 4 3 3 4 6 6 10 2 2 8 3 15 12 22 24 23 19 19 19
9 8 8 10 6 3 0 3 6 8 6 5 10 6 1 3 1 4 6 12 14 12 12 8 2 3 7 5 6 4 3 7 8 4 15 13 16 14 17 20 18 17 17 17
9 7 8 8 4 3 3 3 4 4 4 6 13 12 6 7 5 5 7 9 9 11 7 3 4 5 5 7 4 5 9 4 3 2 13 7 16 18 5 14 15 12 11 11
8 6 8 5 2 4 7 2 1 2 6 4 4 8 4 5 5 8 8 11 11 12 11 6 8 16 13 4 5 7 21 20 14 8 20 21 19 15 15 10 11 5 5 7
4 5 5 3 1 2 0 1 2 4 4 3 5 6 2 3 5 6 8 9 11 13 15 15 16 17 16 4 11 20 24 25 26 23 23 23 16 15 14 15 13 9 2 2
7 8 5 2 1 1 1 4 4 5 3 2 2 4 1 5 6 6 10 9 10 10 13 13 9 12 13 7 16 19 28 24 26 26 23 23 23 20 19 17 14 15 14 11
6 5 4 3 3 1 1 1 2 4 1 4 3 3 2 8 4 6 6 7 3 9 3 4 6 4 6 6 17 21 26 30 26 18 15 12 11 10 11 13 14 17 21 19
4 3 4 2 2 1 2 2 2 1 1 1 4 6 2 8 7 4 4 3 3 3 3 12 3 8 30 32 32 29 19 29 20 15 9 13 15 14 13 12 15 19 20 22
5 3 3 3 2 0 1 2 1 2 2 5 5 6 2 5 3 2 3 2 1 2 3 2 3 3 7 26 35 43 42 23 15 8 11 16 16 18 19 20 22 25 27 27
4 3 1 2 2 2 3 3 4 4 2 6 3 1 3 2 2 1 1 2 2 4 3 3 3 4 18 24 10 13 28 33 23 13 12 13 16 20 24 28 29 29 32 39
2 2 1 1 2 2 3 2 1 2 4 2 5 2 2 2 1 0 1 3 4 7 2 3 3 18 26 26 27 20 11 6 13 16 18 21 24 28 31 33 38 38 37 38
2 2 4 3 2 3 2 1 2 2 6 9 10 1 4 3 2 1 3 3 4 3 3 5 3 16 22 29 35 35 34 31 27 30 32 35 34 36 39 40 42 42 43 41
2 3 2 2 6 6 7 8 6 9 8 11 10 5 6 3 2 3 2 3 4 4 3 3 18 24 26 30 28 28 31 37 37 38 38 39 38 38 41 40 40 41 42 41
2 3 4 11 7 7 11 11 10 11 10 10 6 4 3 4 3 4 5 3 5 2 4 20 30 37 41 40 40 40 38 37 39 42 43 44 44 43 44 41 41 46 47 46
2 3 6 9 8 7 8 8 8 8 3 1 1 2 3 4 3 3 4 3 4 17 25 29 31 37 41 42 41 43 44 43 41 42 42 44 44 43 42 43 42 42 42 42
Wind_Direction
342 343 342 341 342 350 335 304 269 153 160 176 211 236 248 267 285 289 346 303 291 298 299 312 226 212 207 207 206 214 208 206 247 257 239 197 194 206 149 133 254 246 168 243
343 343 343 342 345 347 355 334 284 179 182 218 234 249 243 252 271 280 289 297 253 279 292 315 323 267 221 231 198 204 208 216 238 280 286 240 203 231 185 205 158 189 166 245
343 341 340 340 341 338 341 318 280 200 198 236 267 282 285 271 252 252 301 314 324 307 312 301 289 313 359 90 100 92 108 187 190 230 230 245 256 201 204 190 173 137 197 242
342 342 338 336 335 328 330 254 320 13 312 286 302 257 272 294 303 298 171 283 263 292 319 311 301 305 41 337 95 124 106 203 274 295 295 281 275 279 269 198 204 154 196 193
339 342 340 336 336 343 7 331 358 334 306 313 308 304 287 285 298 298 277 207 240 261 297 22 328 360 28 293 67 38 333 272 333 305 314 307 298 297 297 284 216 81 143 180
337 343 346 343 343 351 14 13 358 324 299 314 316 299 292 300 315 306 305 356 17 23 18 334 311 299 292 290 285 173 199 179 176 256 280 297 296 278 294 298 297 141 155 185
339 342 345 345 350 4 9 17 349 296 296 315 309 313 324 313 57 339 347 352 10 17 350 332 315 287 262 282 300 204 183 198 157 216 273 258 257 295 282 277 269 288 131 169
337 336 341 340 337 340 26 31 348 321 303 323 322 345 330 352 338 324 315 319 13 6 2 354 316 272 313 292 286 302 358 84 257 175 209 248 277 265 260 253 272 260 159 181
329 331 336 338 331 324 117 65 2 318 296 179 333 330 323 350 343 321 315 332 266 16 31 323 254 276 339 230 271 269 307 326 116 315 258 234 236 257 278 293 121 44 54 174
321 325 335 336 329 323 185 52 11 333 295 307 1 0 342 351 341 315 17 339 336 105 152 242 246 258 297 257 269 242 248 282 253 287 243 288 282 337 41 354 168 62 58 118
324 322 328 330 332 316 234 76 17 350 305 298 338 359 350 343 352 353 342 338 3 346 289 212 242 248 237 278 270 238 217 188 227 256 291 255 282 10 64 155 77 76 61 86
318 313 326 328 330 300 269 334 321 298 277 263 296 294 278 277 293 328 333 310 326 351 358 18 340 339 325 284 274 289 260 214 212 191 217 277 292 282 105 108 89 76 70 85
322 312 321 333 330 315 250 287 354 344 311 308 268 327 222 184 277 282 285 308 21 348 353 314 284 285 333 299 287 305 299 360 292 28 248 80 38 80 112 113 100 95 88 85
317 308 325 333 331 335 189 136 20 343 312 275 89 77 73 319 323 265 276 282 297 303 314 307 293 317 335 327 306 325 312 357 320 273 23 355 74 91 102 102 105 99 87 85
310 311 319 331 334 349 10 81 32 9 10 325 309 331 313 281 289 275 306 283 289 287 286 255 264 279 312 308 288 278 327 13 33 304 346 341 340 8 41 111 99 95 88 81
309 301 320 330 344 55 65 98 151 128 19 328 308 321 274 311 296 301 293 284 278 277 275 271 253 269 281 270 283 302 306 314 330 354 344 337 328 335 7 91 117 101 79 76
345 327 332 327 315 174 124 57 108 152 5 290 303 295 91 331 305 297 292 282 265 244 253 242 262 270 282 266 272 282 282 291 298 316 327 329 347 342 331 334 334 348 290 309
335 319 310 317 340 47 148 246 250 286 312 278 292 284 211 358 353 8 5 337 309 285 265 263 259 261 251 251 244 260 275 284 287 292 297 288 296 317 328 327 325 327 327 322
337 358 16 57 82 262 260 260 237 190 39 341 302 277 360 358 32 7 355 350 291 349 300 287 277 228 233 266 240 245 255 265 270 282 289 304 322 337 333 327 325 322 310 311
358 31 30 36 353 17 128 77 100 11 316 237 258 289 317 352 16 43 336 13 329 317 313 329 255 257 254 258 262 271 262 249 268 257 281 303 313 323 326 325 313 309 306 306
33 3 36 28 58 353 229 114 224 166 241 218 237 276 289 2 345 29 32 343 243 273 283 284 269 259 269 269 244 249 249 254 244 248 273 287 294 305 312 310 304 298 288 287
14 357 343 327 294 283 257 203 191 219 224 170 204 351 79 91 69 53 6 302 327 259 275 244 258 247 296 6 325 272 241 244 254 273 245 263 283 295 295 291 290 289 280 270
37 337 331 344 312 356 254 296 67 333 26 95 168 157 115 96 98 216 320 252 244 291 228 246 243 5 2 3 355 4 22 315 251 255 259 272 279 278 277 277 276 275 273 269
10 3 332 244 212 251 303 344 28 63 24 353 325 174 177 153 158 241 251 250 313 260 244 230 20 350 344 339 334 327 317 310 297 284 284 278 276 275 275 271 268 266 260 260
334 305 246 249 344 286 338 358 43 40 16 354 330 271 199 162 207 198 268 244 242 249 253 11 331 328 322 320 313 303 298 292 287 287 283 278 271 266 265 263 261 256 254 258
336 277 297 356 325 6 0 1 352 4 347 332 274 307 268 175 213 187 221 238 236 265 330 315 316 314 311 312 308 304 297 290 286 285 279 274 273 269 267 267 257 253 253 254
268 260 290 301 296 282 297 318 307 321 349 275 326 275 266 300 229 222 199 237 330 313 308 305 298 297 301 305 305 305 302 298 293 287 282 277 276 273 264 258 254 251 252 246